GW0458 Weather Reports


time (UTC)temp
C
wind
direction
speed
KPH
gust
KPH
rain 1hr
cm
rain 24hr
cm
rain mn
cm
humidity
%
barometer
mb
20260831143654 10 205 0.0 0.0 0.00 0.00 0.00 99 1021.8
20260831140651 10 205 0.0 0.0 0.00 0.00 0.00 99 1021.8
20260831133648 9 203 0.0 0.0 0.00 0.00 0.00 99 1021.8
20260831130648 10 192 0.0 0.0 0.00 0.00 0.00 99 1021.9
20260831123647 10 202 0.0 0.0 0.00 0.00 0.00 99 1022.0
20260831120644 11 205 0.0 0.0 0.00 0.00 0.00 99 1022.1
20260831113642 11 211 0.0 0.0 0.00 0.00 0.00 98 1022.4
20260831110642 12 214 0.0 0.0 0.00 0.00 0.00 96 1022.4
20260831103642 12 201 0.0 0.0 0.00 0.00 0.00 97 1022.8
20260831100642 12 217 0.0 0.0 0.00 0.00 0.00 94 1022.9
20260831093641 12 208 0.0 0.0 0.00 0.00 0.00 94 1023.3
20260831090636 13 207 0.0 0.0 0.00 0.00 0.00 92 1023.7
20260831083633 13 205 0.0 0.0 0.00 0.00 0.00 91 1023.6
20260831080632 13 201 0.0 0.0 0.00 0.00 0.00 88 1024.1
20260831073630 13 205 0.0 0.0 0.00 0.00 0.00 90 1023.9
20260831070626 13 209 0.0 0.0 0.00 0.00 0.00 86 1024.3
20260831063623 13 204 0.0 0.0 0.00 0.00 0.00 85 1024.4
20260831060620 15 208 0.0 0.0 0.00 0.00 0.00 80 1024.8
20260831053620 16 200 0.0 0.0 0.00 0.00 0.00 77 1025.1
20260831050615 15 204 0.0 0.0 0.00 0.00 0.00 79 1025.4
20260831043613 16 202 0.0 0.0 0.00 0.00 0.00 76 1025.3
20260831040609 17 208 0.0 0.0 0.00 0.00 0.00 71 1025.2
20260831033604 18 208 0.0 0.0 0.00 0.00 0.00 70 1025.0
20260831030604 18 205 0.0 0.0 0.00 0.00 0.00 68 1024.8
20260831023602 19 207 0.0 0.0 0.00 0.00 0.00 64 1025.0
20260831020559 20 236 0.0 1.6 0.00 0.00 0.00 62 1025.0
20260831013554 20 212 1.6 1.6 0.00 0.00 0.00 58 1025.2
20260831010551 20 217 1.6 3.2 0.00 0.00 0.00 60 1025.6
20260831003547 20 249 1.6 1.6 0.00 0.00 0.00 60 1025.8
20260831000542 21 211 0.0 1.6 0.00 0.00 0.00 56 1025.9
20260830233538 22 219 1.6 1.6 0.00 0.00 0.00 57 1026.1
20260830230533 22 213 0.0 0.0 0.00 0.00 0.00 58 1026.2
20260830223533 20 205 1.6 1.6 0.00 0.00 0.00 63 1026.6
20260830220532 22 215 0.0 1.6 0.00 0.00 0.00 58 1026.5
20260830213527 20 208 0.0 1.6 0.00 0.00 0.00 63 1027.4
20260830210526 21 219 1.6 1.6 0.00 0.00 0.00 59 1027.5
20260830203526 21 213 0.0 0.0 0.00 0.00 0.00 58 1027.4
20260830200524 18 190 1.6 1.6 0.00 0.00 0.00 67 1027.9
20260830193521 18 214 1.6 1.6 0.00 0.00 0.00 66 1028.0
20260830190520 18 77 3.2 4.8 0.00 0.00 0.00 67 1028.2
20260830183517 19 212 0.0 1.6 0.00 0.00 0.00 67 1028.5
20260830180517 18 180 3.2 3.2 0.00 0.00 0.00 70 1028.6
20260830173514 17 201 1.6 1.6 0.00 0.00 0.00 71 1028.4
20260830170514 17 170 1.6 3.2 0.00 0.00 0.00 74 1028.3
20260830163511 15 176 3.2 3.2 0.00 0.00 0.00 77 1028.5
20260830160510 15 200 0.0 1.6 0.00 0.00 0.00 82 1028.6
20260830153507 14 177 1.6 3.2 0.00 0.00 0.00 85 1028.4
20260830150507 13 205 0.0 0.0 0.00 0.00 0.00 90 1028.5